Location: ?????????
(54.7630°N, 39.4991°E)
Time: 19:16:16
(UTC+00:00)

Cosmos 2297 - Pass Details

Date: 14 April 2026
Orbit: 833 x 859 km, 71.0° (Epoch: 19 May)

Event Time Altitude Azimuth Distance (km) Brightness Sun altitude
Rises 18:22:09 0° 325° (NW) 3,443 8.6 -15.4°
Reaches altitude 10° 18:24:44 10° 332° (NNW) 2,505 7.3 -15.7°
Maximum altitude 18:30:16 46° 45° (NE) 1,154 4.4 -16.2°
Enters shadow 18:33:39 22° 107° (ESE) 1,785 4.9 -16.6°
